| time (UTC) | temp F | wind direction | speed MPH | gust MPH | rain 1hr in | rain 24hr in | rain mn in | humidity % | barometer mb |
| 20260510081358 | 67 | 60 | 0.0 | 1.0 | 0.00 | 2.55 | 0.00 | 98 | 1011.3 |
| 20260510081353 | 67 | 60 | 0.0 | 1.0 | 0.00 | 2.55 | 0.00 | 98 | 1011.3 |
| 20260510080318 | 67 | 60 | 0.0 | 1.0 | 0.00 | 2.55 | 0.00 | 98 | 1011.3 |
| 20260510080025 | 67 | 60 | 0.0 | 1.0 | 0.00 | 2.55 | 0.00 | 98 | 1011.2 |
| 20260510075249 | 67 | 60 | 0.0 | 1.0 | 0.00 | 2.55 | 0.00 | 98 | 1011.3 |
| 20260510074739 | 67 | 60 | 0.0 | 2.0 | 0.00 | 2.55 | 0.00 | 98 | 1011.4 |
| 20260510074236 | 67 | 60 | 0.0 | 2.0 | 0.00 | 2.55 | 0.00 | 98 | 1011.4 |
| 20260510073716 | 67 | 59 | 0.0 | 2.0 | 0.00 | 2.55 | 0.00 | 98 | 1011.3 |
| 20260510073443 | 67 | 59 | 0.0 | 2.0 | 0.00 | 2.55 | 0.00 | 98 | 1011.3 |
| 20260510072707 | 67 | 59 | 0.0 | 2.0 | 0.00 | 2.55 | 0.00 | 98 | 1011.3 |
| 20260510072201 | 67 | 50 | 0.0 | 0.0 | 0.00 | 2.55 | 0.00 | 98 | 1011.3 |
| 20260510071655 | 67 | 50 | 0.0 | 0.0 | 0.00 | 2.55 | 0.00 | 98 | 1011.2 |
| 20260510071147 | 67 | 50 | 0.0 | 0.0 | 0.00 | 2.55 | 0.00 | 98 | 1011.3 |
| 20260510070643 | 67 | 50 | 0.0 | 0.0 | 0.00 | 2.55 | 0.00 | 98 | 1011.3 |
| 20260510070139 | 67 | 50 | 0.0 | 0.0 | 0.00 | 2.55 | 0.00 | 98 | 1011.2 |
| 20260510065623 | 67 | 50 | 0.0 | 0.0 | 0.00 | 2.55 | 0.00 | 98 | 1011.2 |
| 20260510065121 | 67 | 50 | 0.0 | 0.0 | 0.00 | 2.55 | 0.00 | 98 | 1011.2 |
| 20260510064600 | 67 | 50 | 0.0 | 0.0 | 0.00 | 2.55 | 0.00 | 98 | 1011.2 |
| 20260510064332 | 67 | 50 | 0.0 | 0.0 | 0.00 | 2.55 | 0.00 | 98 | 1011.2 |
| 20260510063542 | 67 | 50 | 0.0 | 0.0 | 0.00 | 2.55 | 0.00 | 98 | 1011.3 |
| 20260510063044 | 67 | 50 | 0.0 | 0.0 | 0.00 | 2.55 | 0.00 | 98 | 1011.3 |
| 20260510062543 | 67 | 50 | 0.0 | 0.0 | 0.00 | 2.55 | 0.00 | 98 | 1011.3 |
| 20260510062034 | 67 | 50 | 0.0 | 0.0 | 0.00 | 2.55 | 0.00 | 98 | 1011.2 |
| 20260510061509 | 67 | 50 | 0.0 | 0.0 | 0.00 | 2.55 | 0.00 | 98 | 1011.1 |
| 20260510061241 | 67 | 50 | 0.0 | 0.0 | 0.00 | 2.55 | 0.00 | 98 | 1011.2 |
| 20260510060444 | 67 | 50 | 0.0 | 0.0 | 0.00 | 2.55 | 0.00 | 98 | 1011.2 |
| 20260510055941 | 67 | 50 | 0.0 | 0.0 | 0.00 | 2.55 | 0.00 | 98 | 1011.3 |
| 20260510055708 | 67 | 330 | 0.0 | 0.0 | 0.00 | 2.55 | 0.00 | 98 | 1011.2 |
| 20260510054934 | 67 | 330 | 0.0 | 0.0 | 0.00 | 2.55 | 0.00 | 98 | 1011.2 |
| 20260510054431 | 67 | 330 | 0.0 | 0.0 | 0.00 | 2.55 | 0.00 | 98 | 1011.2 |
| 20260510053854 | 67 | 330 | 0.0 | 0.0 | 0.00 | 2.55 | 0.00 | 98 | 1011.2 |
| 20260510053311 | 67 | 330 | 0.0 | 0.0 | 0.00 | 2.55 | 0.00 | 98 | 1011.2 |
| 20260510052723 | 67 | 330 | 0.0 | 0.0 | 0.00 | 2.55 | 0.00 | 98 | 1011.2 |
| 20260510052139 | 67 | 330 | 0.0 | 0.0 | 0.00 | 2.55 | 0.00 | 98 | 1011.3 |
| 20260510051637 | 67 | 330 | 0.0 | 0.0 | 0.00 | 2.55 | 0.00 | 98 | 1011.2 |
| 20260510051122 | 67 | 330 | 0.0 | 0.0 | 0.00 | 2.55 | 0.00 | 98 | 1011.2 |
| 20260510050624 | 67 | 329 | 0.0 | 0.0 | 0.00 | 2.55 | 0.00 | 97 | 1011.3 |
| 20260510050354 | 67 | 329 | 0.0 | 0.0 | 0.00 | 2.55 | 0.00 | 97 | 1011.5 |
| 20260510045842 | 67 | 329 | 0.0 | 0.0 | 0.00 | 2.55 | 2.55 | 97 | 1011.6 |
| 20260510045103 | 67 | 329 | 0.0 | 0.0 | 0.00 | 2.55 | 2.55 | 97 | 1011.6 |
| 20260510044547 | 67 | 329 | 0.0 | 0.0 | 0.00 | 2.55 | 2.55 | 97 | 1011.6 |
| 20260510044038 | 67 | 329 | 0.0 | 0.0 | 0.00 | 2.55 | 2.55 | 97 | 1011.6 |
| 20260510043523 | 67 | 329 | 0.0 | 0.0 | 0.00 | 2.56 | 2.55 | 97 | 1011.7 |
| 20260510043256 | 67 | 329 | 0.0 | 0.0 | 0.00 | 2.56 | 2.55 | 97 | 1011.7 |
| 20260510042513 | 67 | 329 | 0.0 | 0.0 | 0.00 | 2.56 | 2.55 | 97 | 1011.8 |
| 20260510042006 | 67 | 329 | 0.0 | 0.0 | 0.00 | 2.57 | 2.55 | 97 | 1011.7 |
| 20260510041442 | 67 | 329 | 0.0 | 0.0 | 0.00 | 2.57 | 2.55 | 97 | 1011.6 |
| 20260510040931 | 67 | 329 | 0.0 | 0.0 | 0.00 | 2.57 | 2.55 | 97 | 1011.5 |
| 20260510040655 | 67 | 329 | 0.0 | 0.0 | 0.00 | 2.57 | 2.55 | 98 | 1011.3 |
| 20260510040152 | 67 | 329 | 0.0 | 0.0 | 0.00 | 2.58 | 2.55 | 98 | 1011.2 |
| 20260510035411 | 67 | 329 | 0.0 | 0.0 | 0.00 | 2.63 | 2.55 | 98 | 1011.1 |
| 20260510034910 | 67 | 329 | 0.0 | 0.0 | 0.00 | 2.66 | 2.55 | 98 | 1010.8 |
| 20260510034343 | 67 | 329 | 0.0 | 0.0 | 0.00 | 2.67 | 2.55 | 98 | 1010.8 |
| 20260510033843 | 67 | 329 | 0.0 | 0.0 | 0.00 | 2.67 | 2.55 | 98 | 1010.7 |
| 20260510033339 | 67 | 329 | 0.0 | 0.0 | 0.00 | 2.68 | 2.55 | 97 | 1010.7 |
| 20260510032838 | 67 | 329 | 0.0 | 0.0 | 0.00 | 2.70 | 2.55 | 97 | 1010.7 |
| 20260510032328 | 67 | 329 | 0.0 | 0.0 | 0.00 | 2.70 | 2.55 | 97 | 1010.7 |
| 20260510031801 | 67 | 329 | 0.0 | 0.0 | 0.01 | 2.70 | 2.55 | 97 | 1010.6 |
| 20260510031513 | 67 | 329 | 0.0 | 0.0 | 0.01 | 2.70 | 2.55 | 97 | 1010.5 |
| 20260510030730 | 67 | 329 | 0.0 | 0.0 | 0.01 | 2.70 | 2.55 | 97 | 1010.6 |
| 20260510030500 | 67 | 329 | 0.0 | 0.0 | 0.01 | 2.70 | 2.55 | 97 | 1010.7 |
| 20260510025717 | 67 | 329 | 0.0 | 0.0 | 0.01 | 2.70 | 2.55 | 97 | 1010.9 |
| 20260510025219 | 67 | 329 | 0.0 | 1.0 | 0.01 | 2.70 | 2.55 | 97 | 1010.8 |
| 20260510024702 | 67 | 329 | 0.0 | 1.0 | 0.01 | 2.70 | 2.55 | 97 | 1010.7 |
| 20260510024433 | 67 | 329 | 0.0 | 1.0 | 0.01 | 2.70 | 2.55 | 97 | 1010.8 |
| 20260510023653 | 67 | 329 | 0.0 | 1.0 | 0.01 | 2.70 | 2.55 | 97 | 1011.0 |
| 20260510023153 | 67 | 329 | 1.0 | 2.0 | 0.01 | 2.70 | 2.55 | 97 | 1011.2 |
| 20260510022655 | 67 | 329 | 1.0 | 2.0 | 0.01 | 2.70 | 2.55 | 97 | 1011.1 |
| 20260510022150 | 67 | 329 | 0.0 | 1.0 | 0.01 | 2.70 | 2.55 | 97 | 1011.4 |
| 20260510021644 | 67 | 329 | 0.0 | 1.0 | 0.00 | 2.69 | 2.54 | 97 | 1011.5 |
| 20260510021140 | 67 | 329 | 0.0 | 2.0 | 0.00 | 2.69 | 2.54 | 97 | 1011.5 |
| 20260510021128 | 67 | 329 | 1.0 | 2.0 | 0.00 | 2.69 | 2.54 | 97 | 1011.2 |
| 20260510020126 | 67 | 9 | 1.0 | 2.0 | 0.02 | 2.69 | 2.54 | 97 | 1011.2 |
| 20260510015630 | 67 | 41 | 0.0 | 2.0 | 0.02 | 2.69 | 2.54 | 97 | 1010.6 |
| 20260510015626 | 67 | 41 | 0.0 | 2.0 | 0.02 | 2.69 | 2.54 | 97 | 1010.9 |
| 20260510014616 | 67 | 59 | 1.0 | 3.0 | 0.02 | 2.69 | 2.54 | 97 | 1010.7 |
| 20260510014112 | 67 | 325 | 1.0 | 3.0 | 0.02 | 2.69 | 2.54 | 97 | 1010.8 |
| 20260510013608 | 67 | 35 | 1.0 | 2.0 | 0.02 | 2.69 | 2.54 | 97 | 1010.6 |
| 20260510013340 | 67 | 35 | 0.0 | 2.0 | 0.02 | 2.69 | 2.54 | 97 | 1010.5 |
| 20260510012612 | 67 | 28 | 0.0 | 1.0 | 0.02 | 2.69 | 2.54 | 97 | 1010.8 |
| 20260510012047 | 66 | 28 | 0.0 | 1.0 | 0.02 | 2.69 | 2.54 | 97 | 1010.9 |
| 20260510011547 | 66 | 28 | 0.0 | 2.0 | 0.03 | 2.69 | 2.54 | 97 | 1011.0 |
| 20260510011045 | 66 | 28 | 0.0 | 2.0 | 0.03 | 2.69 | 2.54 | 97 | 1010.9 |
| 20260510010545 | 66 | 28 | 1.0 | 2.0 | 0.03 | 2.69 | 2.54 | 97 | 1010.9 |
| 20260510010310 | 66 | 28 | 1.0 | 2.0 | 0.01 | 2.67 | 2.52 | 97 | 1011.2 |
| 20260510005534 | 67 | 28 | 0.0 | 2.0 | 0.01 | 2.67 | 2.52 | 97 | 1011.4 |
| 20260510005306 | 66 | 28 | 0.0 | 1.0 | 0.01 | 2.67 | 2.52 | 97 | 1011.6 |
| 20260510004532 | 67 | 28 | 0.0 | 1.0 | 0.01 | 2.67 | 2.52 | 97 | 1011.6 |
| 20260510004031 | 67 | 28 | 0.0 | 1.0 | 0.01 | 2.67 | 2.52 | 97 | 1011.4 |
| 20260510003532 | 67 | 28 | 0.0 | 1.0 | 0.01 | 2.67 | 2.52 | 97 | 1011.3 |
| 20260510003009 | 67 | 28 | 0.0 | 1.0 | 0.02 | 2.67 | 2.52 | 97 | 1011.2 |
| 20260510002453 | 67 | 28 | 0.0 | 1.0 | 0.02 | 2.67 | 2.52 | 97 | 1011.1 |
| 20260510001943 | 67 | 28 | 0.0 | 0.0 | 0.01 | 2.66 | 2.52 | 97 | 1011.2 |
| 20260510001437 | 67 | 28 | 0.0 | 0.0 | 0.01 | 2.66 | 2.51 | 97 | 1011.0 |
| 20260510000937 | 67 | 28 | 0.0 | 0.0 | 0.01 | 2.66 | 2.51 | 97 | 1010.8 |
| 20260510000438 | 67 | 28 | 0.0 | 0.0 | 0.01 | 2.66 | 2.51 | 97 | 1010.6 |
| 20260510000205 | 67 | 28 | 0.0 | 0.0 | 0.01 | 2.66 | 2.51 | 97 | 1010.5 |
| 20260509235420 | 67 | 28 | 0.0 | 0.0 | 0.01 | 2.66 | 2.51 | 97 | 1010.2 |
| 20260509235149 | 66 | 28 | 0.0 | 1.0 | 0.01 | 2.66 | 2.51 | 97 | 1009.9 |
| 20260509234420 | 66 | 28 | 0.0 | 1.0 | 0.01 | 2.66 | 2.51 | 97 | 1009.8 |
| 20260509234145 | 66 | 28 | 0.0 | 1.0 | 0.01 | 2.66 | 2.51 | 97 | 1009.8 |
| 20260509233637 | 66 | 28 | 0.0 | 1.0 | 0.00 | 2.65 | 2.50 | 97 | 1009.8 |
| 20260509232851 | 66 | 28 | 0.0 | 1.0 | 0.01 | 2.65 | 2.50 | 97 | 1009.8 |
| 20260509232351 | 66 | 28 | 0.0 | 3.0 | 0.02 | 2.65 | 2.50 | 97 | 1009.5 |
| 20260509231847 | 66 | 28 | 1.0 | 3.0 | 0.03 | 2.65 | 2.50 | 97 | 1009.5 |
| 20260509231617 | 66 | 340 | 0.0 | 3.0 | 0.04 | 2.65 | 2.50 | 97 | 1009.3 |
| 20260509230845 | 66 | 67 | 0.0 | 3.0 | 0.05 | 2.65 | 2.50 | 97 | 1009.1 |
| 20260509230340 | 66 | 304 | 0.0 | 2.0 | 0.07 | 2.65 | 2.50 | 97 | 1009.0 |
| 20260509225837 | 66 | 80 | 1.0 | 3.0 | 0.07 | 2.66 | 2.50 | 97 | 1009.1 |
| 20260509225332 | 66 | 209 | 1.0 | 4.0 | 0.09 | 2.66 | 2.50 | 97 | 1009.4 |
| 20260509224832 | 67 | 63 | 0.0 | 4.0 | 0.10 | 2.66 | 2.50 | 97 | 1009.7 |
| 20260509224334 | 67 | 355 | 0.0 | 4.0 | 0.11 | 2.67 | 2.50 | 97 | 1009.8 |
| 20260509223833 | 66 | 355 | 0.0 | 4.0 | 0.13 | 2.69 | 2.50 | 97 | 1009.7 |
| 20260509223332 | 66 | 311 | 0.0 | 1.0 | 0.15 | 2.72 | 2.50 | 97 | 1009.9 |
| 20260509222833 | 66 | 29 | 1.0 | 2.0 | 0.15 | 2.72 | 2.49 | 97 | 1009.9 |
| 20260509222600 | 66 | 29 | 1.0 | 2.0 | 0.15 | 2.71 | 2.48 | 97 | 1009.7 |
| 20260509222101 | 66 | 29 | 0.0 | 2.0 | 0.15 | 2.70 | 2.47 | 97 | 1010.0 |
| 20260509221325 | 66 | 29 | 0.0 | 0.0 | 0.15 | 2.70 | 2.46 | 97 | 1010.0 |
| 20260509221040 | 66 | 29 | 0.0 | 0.0 | 0.15 | 2.69 | 2.45 | 97 | 1010.1 |
| 20260509220536 | 66 | 29 | 0.0 | 0.0 | 0.14 | 2.68 | 2.43 | 97 | 1010.3 |
| 20260509215757 | 66 | 29 | 0.0 | 0.0 | 0.15 | 2.69 | 2.43 | 97 | 1010.6 |
| 20260509215254 | 66 | 29 | 0.0 | 0.0 | 0.14 | 2.67 | 2.41 | 97 | 1010.6 |
| 20260509214755 | 66 | 29 | 0.0 | 1.0 | 0.14 | 2.66 | 2.40 | 97 | 1010.3 |
| 20260509214239 | 66 | 29 | 0.0 | 1.0 | 0.14 | 2.65 | 2.38 | 97 | 1010.1 |
| 20260509213741 | 66 | 29 | 0.0 | 1.0 | 0.15 | 2.64 | 2.37 | 97 | 1010.1 |
| 20260509213241 | 66 | 29 | 0.0 | 1.0 | 0.14 | 2.63 | 2.35 | 97 | 1009.8 |
| 20260509212741 | 66 | 29 | 0.0 | 3.0 | 0.18 | 2.63 | 2.34 | 97 | 1009.9 |
| 20260509212237 | 66 | 29 | 1.0 | 3.0 | 0.23 | 2.62 | 2.33 | 97 | 1010.0 |
| 20260509211736 | 66 | 9 | 0.0 | 2.0 | 0.27 | 2.61 | 2.32 | 97 | 1010.2 |
| 20260509211229 | 66 | 32 | 0.0 | 2.0 | 0.31 | 2.61 | 2.31 | 97 | 1010.2 |
| 20260509210725 | 66 | 32 | 0.0 | 2.0 | 0.37 | 2.60 | 2.30 | 97 | 1010.1 |
| 20260509210225 | 66 | 35 | 0.0 | 2.0 | 0.37 | 2.59 | 2.29 | 97 | 1010.3 |
| 20260509205958 | 66 | 19 | 0.0 | 1.0 | 0.36 | 2.59 | 2.28 | 97 | 1010.4 |
| 20260509205223 | 66 | 19 | 0.0 | 1.0 | 0.36 | 2.59 | 2.27 | 97 | 1010.5 |
| 20260509204720 | 66 | 19 | 0.0 | 1.0 | 0.36 | 2.59 | 2.26 | 97 | 1010.5 |
| 20260509204212 | 66 | 19 | 0.0 | 1.0 | 0.35 | 2.58 | 2.24 | 97 | 1010.5 |
| 20260509203713 | 66 | 19 | 0.0 | 2.0 | 0.34 | 2.57 | 2.23 | 97 | 1010.7 |
| 20260509203437 | 66 | 19 | 0.0 | 2.0 | 0.33 | 2.56 | 2.21 | 97 | 1010.9 |
| 20260509202707 | 67 | 83 | 0.0 | 1.0 | 0.29 | 2.51 | 2.16 | 97 | 1010.8 |
| 20260509202434 | 67 | 83 | 0.0 | 1.0 | 0.26 | 2.46 | 2.10 | 97 | 1010.8 |
| 20260509201657 | 67 | 83 | 0.0 | 0.0 | 0.23 | 2.42 | 2.05 | 97 | 1010.9 |
| 20260509201147 | 67 | 83 | 0.0 | 2.0 | 0.18 | 2.36 | 2.00 | 97 | 1010.8 |
| 20260509200639 | 67 | 83 | 0.0 | 4.0 | 0.12 | 2.30 | 1.93 | 97 | 1010.8 |
| 20260509200138 | 67 | 84 | 0.0 | 4.0 | 0.13 | 2.31 | 1.92 | 97 | 1010.2 |
| 20260509195637 | 67 | 55 | 0.0 | 0.0 | 0.17 | 2.32 | 1.92 | 97 | 1010.2 |
| 20260509195114 | 67 | 55 | 0.0 | 0.0 | 0.18 | 2.32 | 1.91 | 97 | 1010.4 |
| 20260509194604 | 67 | 47 | 0.0 | 2.0 | 0.27 | 2.31 | 1.90 | 97 | 1010.3 |
| 20260509194104 | 67 | 47 | 0.0 | 2.0 | 0.27 | 2.30 | 1.89 | 97 | 1010.2 |
| 20260509193603 | 67 | 49 | 1.0 | 2.0 | 0.27 | 2.30 | 1.88 | 97 | 1010.4 |
| 20260509193105 | 67 | 59 | 1.0 | 4.0 | 0.26 | 2.29 | 1.87 | 97 | 1010.5 |
| 20260509192602 | 67 | 52 | 1.0 | 4.0 | 0.25 | 2.28 | 1.85 | 97 | 1010.7 |
| 20260509192330 | 67 | 57 | 0.0 | 3.0 | 0.23 | 2.26 | 1.83 | 97 | 1010.7 |
| 20260509191557 | 67 | 29 | 0.0 | 3.0 | 0.22 | 2.26 | 1.82 | 97 | 1010.9 |
| 20260509191059 | 67 | 63 | 0.0 | 3.0 | 0.21 | 2.27 | 1.81 | 97 | 1010.9 |
| 20260509190550 | 67 | 221 | 0.0 | 2.0 | 0.20 | 2.30 | 1.80 | 97 | 1010.8 |
| 20260509190051 | 67 | 236 | 1.0 | 4.0 | 0.19 | 2.34 | 1.79 | 97 | 1011.2 |
| 20260509185548 | 67 | 336 | 2.0 | 4.0 | 0.15 | 2.30 | 1.75 | 97 | 1011.2 |
| 20260509185047 | 67 | 278 | 1.0 | 4.0 | 0.13 | 2.28 | 1.74 | 97 | 1010.9 |
| 20260509184547 | 67 | 107 | 1.0 | 3.0 | 0.03 | 2.19 | 1.63 | 97 | 1011.2 |
| 20260509184318 | 67 | 278 | 1.0 | 3.0 | 0.02 | 2.18 | 1.62 | 97 | 1011.8 |
| 20260509183812 | 67 | 93 | 0.0 | 2.0 | 0.01 | 2.18 | 1.61 | 97 | 1011.1 |
| 20260509183310 | 67 | 94 | 0.0 | 1.0 | 0.01 | 2.23 | 1.61 | 97 | 1011.2 |
| 20260509182541 | 67 | 94 | 0.0 | 2.0 | 0.00 | 2.24 | 1.60 | 97 | 1010.9 |
| 20260509182040 | 67 | 94 | 0.0 | 2.0 | 0.00 | 2.44 | 1.60 | 97 | 1011.1 |
| 20260509182036 | 67 | 94 | 0.0 | 2.0 | 0.00 | 2.32 | 1.60 | 97 | 1011.0 |
| 20260509181033 | 67 | 94 | 0.0 | 1.0 | 0.00 | 2.60 | 1.60 | 97 | 1011.3 |
| 20260509180526 | 67 | 94 | 0.0 | 1.0 | 0.00 | 2.87 | 1.60 | 97 | 1011.2 |
| 20260509180021 | 67 | 94 | 0.0 | 1.0 | 0.00 | 3.25 | 1.60 | 97 | 1011.1 |
| 20260509175522 | 67 | 94 | 0.0 | 1.0 | 0.00 | 3.44 | 1.60 | 97 | 1010.7 |
| 20260509175023 | 67 | 94 | 0.0 | 1.0 | 0.00 | 3.53 | 1.60 | 97 | 1010.8 |
| 20260509174502 | 67 | 94 | 0.0 | 2.0 | 0.00 | 3.63 | 1.60 | 97 | 1010.7 |
| 20260509174001 | 67 | 94 | 1.0 | 7.0 | 0.00 | 3.73 | 1.60 | 97 | 1010.6 |
| 20260509173458 | 67 | 94 | 1.0 | 7.0 | 0.00 | 3.88 | 1.60 | 97 | 1010.7 |
| 20260509172958 | 67 | 132 | 1.0 | 2.0 | 0.00 | 4.01 | 1.60 | 97 | 1010.5 |
| 20260509172724 | 67 | 136 | 1.0 | 2.0 | 0.00 | 4.23 | 1.60 | 97 | 1010.7 |
| 20260509171954 | 67 | 105 | 1.0 | 4.0 | 0.00 | 4.32 | 1.60 | 97 | 1010.6 |
| 20260509171949 | 67 | 107 | 1.0 | 4.0 | 0.00 | 4.33 | 1.60 | 97 | 1010.7 |
| 20260509170943 | 67 | 86 | 0.0 | 3.0 | 0.00 | 4.36 | 1.60 | 97 | 1010.6 |
| 20260509170435 | 67 | 112 | 0.0 | 0.0 | 0.00 | 4.44 | 1.60 | 97 | 1010.8 |
| 20260509165928 | 67 | 113 | 0.0 | 0.0 | 0.00 | 4.68 | 1.60 | 97 | 1010.9 |
| 20260509165426 | 66 | 113 | 0.0 | 0.0 | 0.00 | 5.28 | 1.60 | 97 | 1011.0 |
| 20260509164927 | 66 | 113 | 0.0 | 3.0 | 0.00 | 5.65 | 1.60 | 97 | 1011.1 |
| 20260509164425 | 66 | 96 | 1.0 | 4.0 | 0.00 | 6.05 | 1.60 | 97 | 1011.0 |
| 20260509163921 | 66 | 63 | 1.0 | 4.0 | 0.00 | 6.16 | 1.60 | 97 | 1010.9 |
| 20260509163414 | 66 | 88 | 1.0 | 3.0 | 0.00 | 6.16 | 1.60 | 97 | 1011.1 |
| 20260509163140 | 66 | 75 | 0.0 | 2.0 | 0.00 | 6.16 | 1.60 | 97 | 1011.2 |
| 20260509162409 | 66 | 75 | 0.0 | 2.0 | 0.00 | 6.16 | 1.60 | 97 | 1011.3 |
| 20260509161908 | 66 | 75 | 0.0 | 1.0 | 0.00 | 6.16 | 1.60 | 97 | 1011.5 |
| 20260509161410 | 66 | 75 | 0.0 | 3.0 | 0.00 | 6.16 | 1.60 | 97 | 1011.4 |
| 20260509160904 | 66 | 75 | 0.0 | 3.0 | 0.00 | 6.16 | 1.60 | 97 | 1011.1 |
| 20260509160352 | 66 | 38 | 0.0 | 1.0 | 0.00 | 6.16 | 1.60 | 97 | 1011.1 |
| 20260509155853 | 66 | 38 | 0.0 | 2.0 | 0.01 | 6.16 | 1.60 | 97 | 1011.0 |
| 20260509155331 | 66 | 38 | 0.0 | 2.0 | 0.01 | 6.16 | 1.60 | 97 | 1011.0 |
| 20260509154821 | 66 | 37 | 0.0 | 1.0 | 0.01 | 6.16 | 1.60 | 97 | 1011.3 |
| 20260509154550 | 66 | 37 | 0.0 | 1.0 | 0.01 | 6.16 | 1.60 | 97 | 1011.6 |
| 20260509153821 | 66 | 37 | 0.0 | 2.0 | 0.01 | 6.16 | 1.60 | 97 | 1011.7 |
| 20260509153312 | 66 | 37 | 0.0 | 2.0 | 0.01 | 6.16 | 1.60 | 97 | 1011.4 |
| 20260509152804 | 66 | 30 | 0.0 | 0.0 | 0.01 | 6.16 | 1.60 | 97 | 1011.2 |
| 20260509152257 | 66 | 30 | 0.0 | 0.0 | 0.01 | 6.16 | 1.60 | 97 | 1011.4 |
| 20260509151740 | 66 | 30 | 0.0 | 0.0 | 0.01 | 6.16 | 1.60 | 97 | 1011.2 |
| 20260509151507 | 66 | 30 | 0.0 | 3.0 | 0.01 | 6.16 | 1.60 | 97 | 1011.0 |
| 20260509150712 | 66 | 30 | 0.0 | 3.0 | 0.01 | 6.16 | 1.60 | 97 | 1011.1 |
| 20260509150201 | 66 | 107 | 0.0 | 2.0 | 0.00 | 6.15 | 1.59 | 97 | 1011.2 |
| 20260509145931 | 66 | 108 | 0.0 | 1.0 | 0.00 | 6.15 | 1.59 | 97 | 1011.2 |
| 20260509145157 | 66 | 108 | 0.0 | 1.0 | 0.00 | 6.15 | 1.59 | 97 | 1011.0 |
| 20260509144635 | 65 | 80 | 0.0 | 1.0 | 0.01 | 6.15 | 1.59 | 97 | 1011.0 |
| 20260509144131 | 65 | 81 | 0.0 | 1.0 | 0.02 | 6.15 | 1.59 | 97 | 1010.8 |
| 20260509143627 | 65 | 79 | 0.0 | 3.0 | 0.06 | 6.15 | 1.59 | 97 | 1010.7 |
| 20260509143356 | 65 | 79 | 0.0 | 3.0 | 0.11 | 6.15 | 1.59 | 97 | 1010.6 |
| 20260509142623 | 65 | 76 | 0.0 | 0.0 | 0.13 | 6.15 | 1.59 | 97 | 1010.3 |
| 20260509142120 | 65 | 76 | 0.0 | 0.0 | 0.17 | 6.15 | 1.59 | 97 | 1010.4 |
| 20260509141612 | 65 | 76 | 0.0 | 0.0 | 0.19 | 6.15 | 1.59 | 97 | 1010.5 |
| 20260509141104 | 65 | 88 | 0.0 | 0.0 | 0.23 | 6.15 | 1.59 | 97 | 1010.7 |
| 20260509140558 | 65 | 88 | 0.0 | 0.0 | 0.28 | 6.15 | 1.59 | 97 | 1010.8 |
| 20260509140057 | 65 | 88 | 0.0 | 0.0 | 0.30 | 6.15 | 1.59 | 97 | 1010.6 |
| 20260509135557 | 65 | 88 | 0.0 | 0.0 | 0.37 | 6.15 | 1.59 | 97 | 1010.4 |
| 20260509135056 | 65 | 100 | 0.0 | 0.0 | 0.39 | 6.14 | 1.58 | 97 | 1010.4 |
| 20260509134553 | 65 | 74 | 0.0 | 1.0 | 0.39 | 6.14 | 1.58 | 97 | 1010.4 |
| 20260509134043 | 65 | 74 | 0.0 | 2.0 | 0.39 | 6.13 | 1.57 | 97 | 1010.4 |
| 20260509133544 | 65 | 74 | 0.0 | 2.0 | 0.37 | 6.09 | 1.53 | 97 | 1010.7 |
| 20260509133041 | 65 | 67 | 0.0 | 1.0 | 0.42 | 6.04 | 1.48 | 97 | 1010.6 |
| 20260509132542 | 65 | 67 | 0.0 | 1.0 | 0.49 | 6.02 | 1.46 | 97 | 1010.7 |
| 20260509132037 | 65 | 67 | 0.0 | 2.0 | 0.61 | 5.98 | 1.42 | 97 | 1010.8 |
| 20260509131538 | 65 | 67 | 1.0 | 2.0 | 0.69 | 5.96 | 1.40 | 97 | 1010.8 |
| 20260509131037 | 65 | 67 | 0.0 | 2.0 | 0.75 | 5.92 | 1.36 | 97 | 1010.5 |
| 20260509130537 | 65 | 355 | 0.0 | 2.0 | 0.82 | 5.87 | 1.31 | 97 | 1011.1 |
| 20260509130033 | 65 | 355 | 1.0 | 3.0 | 0.91 | 5.85 | 1.29 | 97 | 1011.0 |
| 20260509125530 | 65 | 311 | 1.0 | 3.0 | 0.94 | 5.76 | 1.21 | 97 | 1010.7 |
| 20260509125256 | 65 | 87 | 1.0 | 4.0 | 1.06 | 5.75 | 1.19 | 97 | 1010.8 |
| 20260509124524 | 65 | 107 | 1.0 | 4.0 | 1.15 | 5.75 | 1.19 | 97 | 1010.4 |
| 20260509124020 | 65 | 99 | 1.0 | 5.0 | 1.18 | 5.74 | 1.18 | 97 | 1010.3 |
| 20260509123520 | 65 | 122 | 1.0 | 5.0 | 1.16 | 5.72 | 1.17 | 97 | 1010.2 |
| 20260509123011 | 65 | 77 | 1.0 | 4.0 | 1.04 | 5.60 | 1.06 | 96 | 1010.4 |
| 20260509122510 | 65 | 77 | 1.0 | 4.0 | 0.93 | 5.49 | 0.95 | 97 | 1010.6 |
| 20260509122006 | 65 | 160 | 0.0 | 2.0 | 0.81 | 5.37 | 0.81 | 97 | 1011.1 |
| 20260509121456 | 65 | 161 | 1.0 | 4.0 | 0.69 | 5.25 | 0.71 | 97 | 1010.9 |
| 20260509120944 | 65 | 136 | 1.0 | 4.0 | 0.61 | 5.17 | 0.61 | 96 | 1010.7 |
| 20260509120438 | 65 | 107 | 2.0 | 9.0 | 0.47 | 5.03 | 0.48 | 96 | 1010.7 |
| 20260509115936 | 65 | 55 | 3.0 | 10.0 | 0.37 | 4.93 | 0.38 | 97 | 1011.0 |
| 20260509115436 | 66 | 220 | 3.0 | 12.0 | 0.23 | 4.79 | 0.24 | 97 | 1010.7 |
| 20260509114935 | 67 | 355 | 3.0 | 14.0 | 0.13 | 4.69 | 0.13 | 97 | 1010.9 |
| 20260509114435 | 69 | 194 | 2.0 | 14.0 | 0.03 | 4.59 | 0.04 | 97 | 1010.6 |
| 20260509113936 | 70 | 266 | 0.0 | 4.0 | 0.00 | 4.56 | 0.00 | 97 | 1010.2 |
| 20260509113435 | 70 | 71 | 0.0 | 1.0 | 0.00 | 4.56 | 0.00 | 98 | 1009.5 |
| 20260509112933 | 70 | 71 | 0.0 | 1.0 | 0.00 | 4.56 | 0.00 | 98 | 1009.3 |
| 20260509112435 | 69 | 71 | 0.0 | 1.0 | 0.00 | 4.56 | 0.00 | 98 | 1009.1 |
| 20260509111934 | 69 | 71 | 0.0 | 1.0 | 0.00 | 4.56 | 0.00 | 97 | 1008.9 |
| 20260509111420 | 69 | 71 | 0.0 | 0.0 | 0.00 | 4.56 | 0.00 | 97 | 1008.6 |
| 20260509110843 | 69 | 71 | 0.0 | 0.0 | 0.00 | 4.56 | 0.00 | 97 | 1008.5 |
| 20260509110342 | 69 | 71 | 0.0 | 1.0 | 0.00 | 4.56 | 0.00 | 97 | 1008.3 |
| 20260509105838 | 69 | 71 | 0.0 | 1.0 | 0.00 | 4.56 | 0.00 | 97 | 1008.2 |
| 20260509105337 | 69 | 71 | 0.0 | 0.0 | 0.00 | 4.56 | 0.00 | 97 | 1007.9 |
| 20260509104838 | 69 | 71 | 0.0 | 1.0 | 0.00 | 4.56 | 0.00 | 97 | 1007.8 |
| 20260509104339 | 69 | 71 | 0.0 | 1.0 | 0.00 | 4.56 | 0.00 | 97 | 1007.7 |
| 20260509103833 | 69 | 71 | 0.0 | 1.0 | 0.00 | 4.56 | 0.00 | 97 | 1008.0 |
| 20260509103602 | 69 | 71 | 0.0 | 1.0 | 0.00 | 4.56 | 0.00 | 97 | 1008.1 |
| 20260509103103 | 69 | 71 | 0.0 | 0.0 | 0.00 | 4.56 | 0.00 | 97 | 1008.0 |
| 20260509102331 | 69 | 71 | 0.0 | 1.0 | 0.00 | 4.56 | 0.00 | 97 | 1008.1 |
| 20260509101829 | 69 | 71 | 0.0 | 1.0 | 0.00 | 4.57 | 0.00 | 97 | 1008.1 |
| 20260509101325 | 69 | 71 | 0.0 | 0.0 | 0.00 | 4.57 | 0.00 | 97 | 1008.2 |
| 20260509100824 | 69 | 71 | 0.0 | 0.0 | 0.00 | 4.57 | 0.00 | 97 | 1008.3 |
| 20260509100543 | 69 | 71 | 0.0 | 0.0 | 0.00 | 4.57 | 0.00 | 97 | 1008.1 |
| 20260509095758 | 69 | 71 | 0.0 | 0.0 | 0.00 | 4.57 | 0.00 | 97 | 1008.0 |
| 20260509095250 | 69 | 71 | 0.0 | 0.0 | 0.00 | 4.57 | 0.00 | 97 | 1007.9 |
| 20260509094743 | 69 | 71 | 0.0 | 0.0 | 0.00 | 4.57 | 0.00 | 97 | 1007.8 |
| 20260509094242 | 69 | 71 | 0.0 | 1.0 | 0.00 | 4.57 | 0.00 | 97 | 1007.7 |
| 20260509094005 | 69 | 71 | 0.0 | 1.0 | 0.00 | 4.57 | 0.00 | 97 | 1007.5 |
| 20260509093450 | 69 | 71 | 0.0 | 1.0 | 0.00 | 4.57 | 0.00 | 97 | 1007.3 |
| 20260509092718 | 69 | 71 | 0.0 | 2.0 | 0.00 | 4.57 | 0.00 | 97 | 1007.4 |
| 20260509092213 | 69 | 71 | 0.0 | 2.0 | 0.00 | 4.57 | 0.00 | 97 | 1007.4 |
| 20260509091644 | 69 | 71 | 0.0 | 0.0 | 0.00 | 4.57 | 0.00 | 97 | 1007.4 |
| 20260509091142 | 69 | 71 | 0.0 | 1.0 | 0.00 | 4.57 | 0.00 | 97 | 1007.4 |
| 20260509090609 | 69 | 71 | 0.0 | 2.0 | 0.00 | 4.57 | 0.00 | 97 | 1007.5 |
| 20260509090110 | 69 | 71 | 0.0 | 2.0 | 0.00 | 4.57 | 0.00 | 97 | 1007.7 |
| 20260509085557 | 69 | 49 | 0.0 | 1.0 | 0.00 | 4.57 | 0.00 | 97 | 1007.8 |
| 20260509085323 | 69 | 49 | 0.0 | 1.0 | 0.00 | 4.57 | 0.00 | 97 | 1007.9 |
| 20260509084544 | 69 | 49 | 0.0 | 1.0 | 0.00 | 4.57 | 0.00 | 97 | 1008.1 |
| 20260509084042 | 69 | 49 | 0.0 | 0.0 | 0.00 | 4.57 | 0.00 | 97 | 1008.2 |
| 20260509083539 | 69 | 49 | 0.0 | 0.0 | 0.00 | 4.57 | 0.00 | 97 | 1008.4 |
| 20260509083037 | 69 | 49 | 0.0 | 1.0 | 0.00 | 4.57 | 0.00 | 97 | 1008.4 |
| 20260509082537 | 69 | 49 | 0.0 | 1.0 | 0.00 | 4.57 | 0.00 | 97 | 1008.4 |
| 20260509082256 | 69 | 49 | 0.0 | 1.0 | 0.00 | 4.57 | 0.00 | 97 | 1008.6 |
| 20260509081525 | 69 | 49 | 0.0 | 1.0 | 0.00 | 4.57 | 0.00 | 97 | 1008.7 |